TITAN 3C TRANSTAGE R/B

基本信息
目录编号:
10002
目录名称:
TITAN 3C TRANSTAGE R/B
国际标识:
1977-034C
轨道中心:
EARTH
物体状态:
在轨
发射日期:
1977-05-12 UTC
国别:
美国 (US)
轨道信息
数据来源: 国际轨道数据
星历时间: 2026-07-14T05:09:42+0800
半长轴: 43541.36km
偏心率: 0.028962
轨道倾角: 8.625°
近地点辐角: 109.213°
升交点赤经: 294.502°
平近点角: 283.276°
近地点: 35902.178km
远地点: 38424.268km
周期: 1506.998分钟
每日圈数: 0.955542
详细信息
发射场:
AFETR
轨道高度:
HEO
数据来源:
AOE Integration Group
参考系:
TEME
时间系统:
UTC
历元类型:
SGP4
2D轨道图
3D轨道图
轨道高度分析图
轨道倾角分析图
轨道综合分析图
查看轨道综合分析图